This demonstration page uses our WeatherBlox Daily Observations layout. Learn more.

Left ArrowRight Arrow

38.80484, -77.04692

Hourly Observations for July 28, 2018

Temp ( °F °C ) Dew Point ( °F °C ) Humidity (%) Winds ( mph kmh ) Pressure ( in mb ) Visibility ( mi km ) Precip ( " mm )
12:52 am 00:52 Cloudy 77 25 68 20 74 74 Calm 30.01 1016 10 16 0.00 0.00
1:52 am 01:52 Cloudy 76 24.4 70 21.1 82 82 Calm 29.99 1016 10 16 0.00 0.00
2:52 am 02:52 Cloudy 74 23.3 68 20 82 82 NNW 7 11 29.99 1016 10 16 0.00 0.00
3:52 am 03:52 Mostly Cloudy 73 22.8 68 20 84 84 N 8 13 29.98 1015 10 16 0.00 0.00
4:52 am 04:52 Partly Cloudy 72 22.2 67 19.4 84 84 N 5 7 29.98 1015 10 16 0.00 0.00
5:52 am 05:52 Partly Cloudy 72 22.2 68 20 87 87 NNE 5 7 29.98 1015 10 16 0.00 0.00
6:52 am 06:52 Partly Cloudy 73 22.8 68 20 84 84 N 6 9 30.00 1016 10 16 0.00 0.00
7:52 am 07:52 Partly Cloudy 77 25 67 19.4 71 71 N 6 9 30.01 1016 10 16 0.00 0.00
8:52 am 08:52 Partly Cloudy 79 26.1 66 18.9 65 65 NNW 9 15 30.04 1017 10 16 0.00 0.00
9:52 am 09:52 Mostly Cloudy 81 27.2 65 18.3 58 58 NW 9 15 30.03 1017 10 16 0.00 0.00
10:52 am 10:52 Mostly Cloudy 84 28.9 64 17.8 51 51 NNW 12 19 30.04 1017 10 16 0.00 0.00
11:52 am 11:52 Mostly Cloudy 85 29.4 62 16.7 46 46 WNW 8 13 30.05 1018 10 16 0.00 0.00
12:52 pm 12:52 Mostly Cloudy 85 29.4 61 16.1 45 45 N 10 17 30.03 1017 10 16 0.00 0.00
1:52 pm 13:52 Partly Cloudy 86 30 62 16.7 45 45 NW 9 15 30.01 1016 10 16 0.00 0.00
2:52 pm 14:52 Mostly Cloudy 84 28.9 64 17.8 51 51 NNE 9 15 30.02 1017 10 16 0.00 0.00
3:52 pm 15:52 Mostly Cloudy 87 30.6 64 17.8 46 46 N 13 20 30.00 1016 10 16 0.00 0.00
4:52 pm 16:52 Partly Cloudy 87 30.6 60 15.6 40 40 NNW 10 17 30.00 1016 10 16 0.00 0.00
5:52 pm 17:52 Mostly Sunny 86 30 58 14.4 39 39 N 12 19 30.01 1016 10 16 0.00 0.00
6:52 pm 18:52 Mostly Sunny 85 29.4 58 14.4 40 40 N 12 19 30.01 1016 10 16 0.00 0.00
7:52 pm 19:52 Mostly Sunny 83 28.3 58 14.4 43 43 NNW 7 11 30.03 1017 10 16 0.00 0.00
8:52 pm 20:52 Mostly Clear 81 27.2 63 17.2 54 54 N 5 7 30.03 1017 10 16 0.00 0.00
9:52 pm 21:52 Mostly Clear 81 27.2 60 15.6 49 49 NNW 5 7 30.05 1018 10 16 0.00 0.00
10:52 pm 22:52 Mostly Clear 77 25 68 20 74 74 Calm 30.06 1018 10 16 0.00 0.00
11:52 pm 23:52 Mostly Cloudy 77 25 66 18.9 69 69 ESE 3 6 30.07 1018 10 16 0.00 0.00

Powered by AerisWeather